Погода мв Жировичах

Беларусь     53°00′47″N   25°20′39″E
темп.,
°C
ветер,
м/с
пор.,
м/с
влажн.,
%
обл.,
%
осадки,
мм/ч
давл.,
гПа
погр.,
м
25 мая, ср
ср2500:00+10ююв347662 0.0 101461
03:00+9ююв3579100 0.0 101589
06:00+10ююв3676100 0.0 1014123
09:00+14ю3868100 0.0 1015332
12:00+14юв3676100 0.0 1015334
15:00+18ююв476267 0.0 10131021
18:00+18ююв5662100 0.0 1012934
21:00+16ююв4978100 0.0 1010352
26 мая, чт
чт2600:00+13зсз4798100 1.5 1009406
03:00+10сз61395100 7.0 1011784
06:00+8з3109829 0.1 1012366
09:00+13з588459 0.1 1012706
12:00+17з811564 0.7 10111792
15:00+17з8136372 1.3 10111787
18:00+16з7137389 1.1 10101493
21:00+13зсз71486100 2.6 1011937
27 мая, пт
пт2700:00+9з513900 0.0 1012750
03:00+8з515852 0.0 1012626
06:00+8зюз4139137 0.0 1012477
09:00+10зюз51175100 0.0 1011783
12:00+11юз4993100 0.8 1009671
15:00+10з4993100 3.3 1008520
18:00+12зюз61086100 1.4 1006988
21:00+10з5128933 2.5 1006762
28 мая, сб
сб2800:00+7зюз412945 0.1 1007324
03:00+6зюз6159122 0.1 1006736
06:00+6зюз6139236 0.0 1007769
09:00+8з71276100 0.1 10081192
12:00+10з7116561 0.2 10081584
15:00+13зюз81053100 0.4 10072253
18:00+11з61072100 1.0 10081549
21:00+8зюз39805 1.3 1009216
29 мая, вс
вс2900:00+9зюз51087100 0.0 1009724
03:00+9юз4992100 0.1 1010631
06:00+8юз4895100 0.1 1011448
09:00+11зюз468445 0.3 1012712
12:00+13юз567364 0.9 10121095
15:00+16зюз455745 1.8 10121551
18:00+13юз367950 1.0 1013381
21:00+11юз24905 1.5 101364